Location: Utrecht
(52.0917°N, 5.1178°E)
Time: 22:19:12
(UTC+02:00)

X-37B - Visible Passes

Search period start: 23 June 2021 00:00
Search period end: 03 July 2021 00:00
Orbit: 386 x 389 km, 45.0° (Epoch: 10 June)

Date Brightness Start Highest point End Pass type
(mag) Time Alt. Az. Time Alt. Az. Time Alt. Az.
24 Jun 2.2 00:08:31 10° SW 00:10:09 18° S 00:10:09 18° S visible
24 Jun 2.3 23:10:43 10° SSW 23:12:46 16° SSE 23:14:48 10° ESE visible
25 Jun 2.4 00:46:11 10° SW 00:47:29 18° SW 00:47:29 18° SW visible
25 Jun 1.9 23:48:03 10° SW 23:50:35 22° S 23:51:53 17° SE visible
26 Jun 2.1 22:50:02 10° SW 22:52:26 19° SSE 22:54:48 10° ESE visible
27 Jun 1.9 00:25:56 10° WSW 00:28:17 22° SSW 00:28:17 22° SSW visible
27 Jun 1.9 23:27:42 10° SW 23:30:18 23° S 23:32:17 13° SE visible
28 Jun 3.1 01:04:19 10° WSW 01:04:33 11° SW 01:04:33 11° SW visible
29 Jun 2.1 00:05:49 10° WSW 00:08:10 19° SSW 00:08:29 19° S visible
29 Jun 2.0 23:07:28 10° WSW 23:10:00 22° S 23:12:24 11° SE visible
30 Jun 2.5 23:45:51 10° WSW 23:47:50 15° SSW 23:48:33 14° S visible
02 Jul 2.9 23:26:18 10° SW 23:27:26 11° SSW 23:28:34 10° S visible
